[[{"header":{"parameterUnit":"m.s-1","parameterCategory":1,"la1":30.2991,"la2":30.254,"lo1":-89.0895,"lo2":-89.0444,"dy":0.0017,"dx":0.0017,"nx":28,"ny":28,"refTime":"2024-05-06T03:00:00:Z","depth":0,"parameterNumber":2,"parameterNumberName":"U-component_of_WINDS"},"data":[0,0,0,0,0,0,0,0,0,0,0,0,0,0,0,0,0,0,0,0,0,0,0,0,0,0,0,0,0,0,0,0,0,0,0,0,0,0,0,0,0,0,0,0,0,0,0,0,0,0,0,0,0,0,0,0,0,0,-0.7199,-0.7199,0,-0.7229,-0.7229,-0.723,-0.7228,-0.7227,-0.7227,-0.7226,-0.7259,-0.726,-0.7262,0,0,0,0,0,0,0,0,0,0,0,0,0,-0.7142,-0.7143,-0.7199,-0.7199,-0.7199,-0.7229,-0.7229,-0.723,-0.7228,-0.7227,-0.7227,-0.7226,-0.7259,-0.726,-0.7262,0,0,0,0,0,0,0,0,0,0,0,0,0,-0.7169,-0.7143,-0.7199,-0.7202,-0.7203,-0.7229,-0.7229,-0.723,-0.7228,-0.7227,-0.7227,-0.7226,-0.7258,-0.726,-0.7262,-0.7287,0,0,-0.7268,-0.7269,0,0,0,0,0,0,0,0,-0.7167,-0.7171,-0.7201,-0.7202,-0.7203,-0.7224,-0.7221,-0.7249,-0.7228,-0.7218,-0.7226,-0.7226,-0.7248,-0.7251,-0.7258,-0.7289,-0.729,-0.7268,-0.7269,-0.727,-0.7271,0,0,0,0,0,0,0,-0.7165,-0.717,-0.7211,-0.7202,-0.7202,-0.7203,-0.7206,-0.7227,-0.7237,-0.7219,-0.7219,-0.7223,-0.7248,-0.7256,-0.7259,-0.7291,-0.7268,-0.727,-0.7271,-0.7272,-0.7346,-0.7347,0,0,0,0,0,0,-0.7162,-0.7168,-0.721,-0.7212,-0.7183,-0.7204,-0.7208,-0.7218,-0.7236,-0.7239,-0.7223,-0.7222,-0.7253,-0.7256,-0.726,-0.7292,-0.727,-0.7272,-0.7273,-0.7345,-0.7346,-0.7347,0,0,0,0,0,0,-0.7161,-0.7166,-0.7209,-0.719,-0.7195,-0.7206,-0.7217,-0.7219,-0.7226,-0.7239,-0.7241,-0.7229,-0.7253,-0.7257,-0.7281,-0.7293,-0.7273,-0.7274,-0.7344,-0.7345,-0.7347,-0.7356,0,0,0,0,0,0,-0.716,-0.7166,-0.7175,-0.719,-0.7196,-0.7228,-0.7218,-0.722,-0.723,-0.7229,-0.7246,-0.7248,-0.7253,-0.7278,-0.7283,-0.7295,-0.7276,-0.7343,-0.7345,-0.7346,-0.7354,-0.7357,-0.7359,0,0,0,0,0,-0.7158,-0.7176,-0.7175,-0.718,-0.7208,-0.7229,-0.7233,-0.7237,-0.7231,-0.724,-0.7249,-0.7247,-0.7291,-0.728,-0.7286,-0.7299,-0.7342,-0.7344,-0.7346,-0.7353,-0.7356,-0.7359,0,0,0,0,0,0,-0.7163,-0.7178,-0.7177,-0.7201,-0.7214,-0.7229,-0.7241,-0.724,-0.7255,-0.7254,-0.726,-0.7264,-0.7288,-0.7296,-0.7284,-0.7326,-0.7316,-0.7319,-0.7319,-0.7323,-0.7325,-0.7323,-0.7278,0,0,0,0,0,-0.7166,-0.7182,-0.7195,-0.7215,-0.7221,-0.723,-0.7239,-0.7242,-0.7255,-0.7261,-0.7271,-0.7285,-0.7301,-0.7312,-0.7329,-0.7355,-0.736,-0.7367,-0.737,-0.7372,-0.7375,-0.7391,-0.7395,-0.7353,-0.7353,-0.7353,0,0,-0.7175,-0.7185,-0.7194,-0.7216,-0.7226,-0.7243,-0.7234,-0.7252,-0.7265,-0.7264,-0.7287,-0.7295,-0.731,-0.7336,-0.7348,-0.7343,-0.7387,-0.7374,-0.7376,-0.7377,-0.7393,-0.7397,-0.7401,-0.7354,-0.7354,-0.7354,0,0,-0.7198,-0.7207,-0.7225,-0.7236,-0.7251,-0.7257,-0.7261,-0.7276,-0.7281,-0.7305,-0.7304,-0.732,-0.7349,-0.736,-0.737,-0.7399,-0.7398,-0.7404,-0.7417,-0.7433,-0.7436,-0.7439,-0.7451,-0.7455,-0.7407,-0.7407,-0.7407,0,-0.7207,-0.7231,-0.7235,-0.7253,-0.7263,-0.7263,-0.7282,-0.7292,-0.7312,-0.7319,-0.7314,-0.735,-0.7361,-0.739,-0.7397,-0.7404,-0.7411,-0.7402,-0.7435,-0.7439,-0.7441,-0.7453,-0.7457,-0.7407,-0.7407,-0.7407,-0.7407,0,-0.7241,-0.7258,-0.7271,-0.729,-0.7302,-0.732,-0.7328,-0.7339,-0.7341,-0.7348,-0.7373,-0.7385,-0.7405,-0.7412,-0.7413,-0.7441,-0.7438,-0.7434,-0.7425,-0.7446,-0.7457,-0.7461,-0.7408,-0.7408,-0.7408,-0.7408,0,0,-0.7269,-0.729,-0.7295,-0.7304,-0.7321,-0.7335,-0.7354,-0.7372,-0.7383,-0.7396,-0.7413,-0.7438,-0.7435,-0.7446,-0.7449,-0.7463,-0.7487,-0.7457,-0.7458,-0.7463,-0.752,-0.7523,-0.7528,-0.7486,-0.7487,-0.7488,-0.7519,0,-0.7295,-0.7328,-0.7333,-0.7362,-0.7379,-0.7379,-0.7396,-0.7409,-0.7416,-0.7431,-0.744,-0.7457,-0.7451,-0.7458,-0.7471,-0.7481,-0.7498,-0.7479,-0.7503,-0.7504,-0.75,-0.7533,-0.7537,-0.7566,-0.7523,-0.7523,-0.7524,0,-0.733,-0.7345,-0.7376,-0.7391,-0.7399,-0.7413,-0.7431,-0.7446,-0.7461,-0.7466,-0.7478,-0.748,-0.7501,-0.749,-0.752,-0.7507,-0.7517,-0.7524,-0.7525,-0.7528,-0.7516,-0.7538,-0.7575,-0.7579,-0.753,-0.753,-0.7529,0,-0.7348,-0.7376,-0.7398,-0.7406,-0.7425,-0.7435,-0.7444,-0.7458,-0.7469,-0.7485,-0.7493,-0.7511,-0.7521,-0.7536,-0.7544,-0.7535,-0.7573,-0.7563,-0.7579,-0.7579,-0.7587,-0.7587,-0.7627,-0.7592,-0.7592,-0.7592,-0.7592,0,-0.7377,-0.7397,-0.7407,-0.7421,-0.7443,-0.7449,-0.7471,-0.7479,-0.7492,-0.7508,-0.751,-0.7525,-0.7533,-0.7551,-0.7557,-0.7581,-0.7585,-0.7591,-0.7592,-0.7591,-0.759,-0.7598,-0.7597,-0.7593,-0.7593,-0.7593,-0.7593,0,-0.7402,-0.7409,-0.7434,-0.745,-0.7454,-0.747,-0.7484,-0.7498,-0.7505,-0.7526,-0.7531,-0.7543,-0.7563,-0.7572,-0.7597,-0.7601,-0.763,-0.7629,-0.7624,-0.7625,-0.7641,-0.764,-0.7688,-0.7695,-0.7655,-0.7656,-0.7656,0,-0.742,-0.7435,-0.7452,-0.7463,-0.7472,-0.7489,-0.7501,-0.7507,-0.7519,-0.7538,-0.7551,-0.7571,-0.7587,-0.762,-0.7632,-0.7651,-0.7652,-0.7667,-0.7655,-0.7654,-0.7654,-0.7653,-0.7655,-0.767,-0.767,-0.7671,-0.7671,0,-0.7453,-0.7456,-0.7472,-0.749,-0.7503,-0.7518,-0.7532,-0.7541,-0.755,-0.7564,-0.7584,-0.7597,-0.7623,-0.7644,-0.7664,-0.7674,-0.7675,-0.7675,-0.768,-0.7679,-0.7676,-0.7679,-0.7632,-0.7674,-0.7674,-0.7673,-0.7673,-0.7673,-0.7476,-0.7489,-0.7504,-0.7522,-0.7534,-0.7547,-0.7561,-0.757,-0.7588,-0.7609,-0.7612,-0.7634,-0.765,-0.7678,-0.7688,-0.7707,-0.7703,-0.771,-0.7712,-0.7713,-0.7715,-0.7673,-0.771,-0.771,-0.771,-0.771,-0.771,0,-0.7509,-0.7519,-0.7536,-0.7555,-0.757,-0.7568,-0.7584,-0.7597,-0.7617,-0.7631,-0.7648,-0.7672,-0.7692,-0.7705,-0.7726,-0.7739,-0.774,-0.7744,-0.7744,-0.7746,-0.7717,-0.7711,-0.7743,-0.7743,-0.7743,-0.7743,-0.7743,-0.7743,-0.7529,-0.7552,-0.7557,-0.7587,-0.7596,-0.7618,-0.7627,-0.764,-0.7652,-0.7679,-0.7696,-0.7704,-0.7718,-0.774,-0.7759,-0.7763,-0.7771,-0.7776,-0.7779,-0.7752,-0.7748,-0.7745,-0.774,-0.7777,-0.7777,-0.7808,-0.7808,-0.7808]},{"header":{"parameterUnit":"m.s-1","parameterCategory":1,"la1":30.2991,"la2":30.254,"lo1":-89.0895,"lo2":-89.0444,"dy":0.0017,"dx":0.0017,"nx":28,"ny":28,"refTime":"2024-05-06T03:00:00:Z","depth":0,"parameterNumber":3,"parameterNumberName":"V-component_of_WINDS"},"data":[0,0,0,0,0,0,0,0,0,0,0,0,0,0,0,0,0,0,0,0,0,0,0,0,0,0,0,0,0,0,0,0,0,0,0,0,0,0,0,0,0,0,0,0,0,0,0,0,0,0,0,0,0,0,0,0,0,0,2.9083,2.9083,0,2.9174,2.9175,2.9176,2.9187,2.9186,2.9185,2.9184,2.9273,2.9276,2.9279,0,0,0,0,0,0,0,0,0,0,0,0,0,2.8912,2.8916,2.9082,2.9084,2.9085,2.9174,2.9175,2.9176,2.9187,2.9186,2.9185,2.9184,2.9272,2.9275,2.9279,0,0,0,0,0,0,0,0,0,0,0,0,0,2.8993,2.8917,2.9082,2.9101,2.9104,2.9173,2.9175,2.9177,2.9187,2.9186,2.9185,2.9183,2.927,2.9275,2.928,2.9336,0,0,2.9294,2.9296,0,0,0,0,0,0,0,0,2.8989,2.8999,2.9097,2.91,2.9103,2.9168,2.9147,2.923,2.9188,2.9155,2.9184,2.9183,2.9238,2.9246,2.9266,2.934,2.9343,2.9295,2.9297,2.93,2.9301,0,0,0,0,0,0,0,2.8983,2.8995,2.9118,2.9098,2.9102,2.9103,2.9113,2.9163,2.9203,2.9158,2.9159,2.917,2.924,2.9261,2.9268,2.9345,2.9294,2.9299,2.9302,2.9303,2.9469,2.9471,0,0,0,0,0,0,2.8975,2.8991,2.9116,2.9121,2.9041,2.9107,2.9119,2.9148,2.9203,2.921,2.9171,2.917,2.9253,2.9262,2.9271,2.934,2.9299,2.9304,2.9307,2.9468,2.947,2.9471,0,0,0,0,0,0,2.8971,2.8986,2.9112,2.9056,2.9073,2.9112,2.9145,2.9151,2.9172,2.9212,2.9219,2.9186,2.9253,2.9264,2.932,2.9343,2.9306,2.931,2.9466,2.9468,2.9471,2.9479,0,0,0,0,0,0,2.8966,2.8984,2.9007,2.9057,2.9076,2.9161,2.9146,2.9153,2.9181,2.9181,2.9228,2.9235,2.9253,2.9313,2.9325,2.9349,2.9314,2.9464,2.9467,2.947,2.9476,2.9481,2.9485,0,0,0,0,0,2.896,2.9004,2.9008,2.9023,2.9105,2.9162,2.9172,2.9194,2.9183,2.9205,2.9231,2.9233,2.9339,2.9318,2.9332,2.9358,2.9463,2.9466,2.947,2.9475,2.948,2.9485,0,0,0,0,0,0,2.8954,2.9011,2.9016,2.9078,2.9116,2.9164,2.9193,2.9199,2.9239,2.9236,2.926,2.927,2.9325,2.9347,2.9323,2.9415,2.9399,2.9406,2.9399,2.9404,2.9408,2.9401,2.9318,0,0,0,0,0,2.8961,2.9004,2.9051,2.9101,2.912,2.9153,2.9179,2.9192,2.9231,2.9246,2.9276,2.9312,2.9354,2.938,2.942,2.948,2.949,2.9505,2.9509,2.9512,2.9517,2.955,2.9557,2.9483,2.9483,2.9483,0,0,2.8973,2.901,2.9035,2.9101,2.9131,2.9174,2.9166,2.9211,2.9243,2.9252,2.9307,2.9331,2.9372,2.943,2.9457,2.945,2.954,2.9517,2.9519,2.9522,2.9554,2.9561,2.9567,2.9485,2.9485,2.9484,0,0,2.9019,2.9051,2.9097,2.9128,2.9175,2.9197,2.9208,2.9256,2.9272,2.9328,2.9336,2.9373,2.9444,2.9474,2.9498,2.9555,2.9558,2.9568,2.9589,2.9621,2.9627,2.9632,2.9652,2.9659,2.9573,2.9573,2.9573,0,2.9028,2.9095,2.9119,2.9165,2.9193,2.9206,2.9251,2.928,2.9336,2.9355,2.9347,2.9437,2.9466,2.9531,2.9545,2.9564,2.9576,2.9562,2.9624,2.963,2.9635,2.9654,2.9662,2.9573,2.9573,2.9573,2.9573,0,2.9104,2.915,2.9181,2.9238,2.9269,2.9315,2.9345,2.9374,2.9384,2.9407,2.9463,2.9499,2.9546,2.9563,2.9573,2.9629,2.9624,2.962,2.9604,2.9643,2.9661,2.9669,2.9575,2.9574,2.9574,2.9574,0,0,2.9147,2.9218,2.9229,2.9255,2.9308,2.9343,2.9389,2.9438,2.9462,2.95,2.9539,2.9599,2.9596,2.9623,2.9637,2.9665,2.9708,2.9658,2.9659,2.9666,2.9772,2.9774,2.9782,2.9711,2.9712,2.9714,2.9768,0,2.9199,2.9282,2.9306,2.9376,2.9418,2.9431,2.947,2.9506,2.9529,2.9567,2.959,2.9633,2.9626,2.9643,2.9671,2.9697,2.973,2.9693,2.9745,2.9747,2.9734,2.9792,2.9795,2.9844,2.9776,2.9777,2.9778,0,2.9269,2.9312,2.9387,2.9435,2.9453,2.9489,2.9535,2.9572,2.9613,2.9627,2.9658,2.967,2.9716,2.9699,2.9763,2.9738,2.9761,2.9777,2.9779,2.9784,2.9764,2.9798,2.9861,2.9868,2.9789,2.9788,2.9788,0,2.9293,2.9369,2.9423,2.9445,2.9503,2.9527,2.9552,2.9592,2.962,2.966,2.9678,2.9722,2.9746,2.978,2.9803,2.9788,2.9865,2.9849,2.9877,2.9876,2.9892,2.989,2.9958,2.9907,2.9907,2.9907,2.9907,0,2.9348,2.9393,2.9435,2.9469,2.9519,2.9545,2.9594,2.9619,2.9654,2.9692,2.9705,2.9739,2.9768,2.9806,2.9824,2.9874,2.9884,2.9896,2.99,2.9895,2.9893,2.9909,2.9906,2.9909,2.9908,2.9908,2.9908,0,2.9382,2.9413,2.9473,2.9523,2.9537,2.9572,2.9614,2.9646,2.967,2.9717,2.9729,2.9765,2.9811,2.9837,2.9894,2.9906,2.9961,2.9964,2.9948,2.995,2.9976,2.9973,3.0056,3.0068,3.0009,3.001,3.001,0,2.9415,2.945,2.9505,2.9532,2.9558,2.9601,2.963,2.9657,2.9686,2.9736,2.9762,2.9808,2.9847,2.9919,2.9949,2.9993,2.9996,3.0022,3.0002,2.9996,2.9996,2.9993,2.9997,3.0025,3.0026,3.0026,3.0027,0,2.9469,2.9483,2.9525,2.9573,2.9608,2.9647,2.9685,2.9705,2.9738,2.977,2.9818,2.9849,2.9908,2.9953,3.0,3.0023,3.003,3.0033,3.0041,3.0036,3.0025,3.0031,2.9957,3.003,3.003,3.003,3.003,3.0029,2.9504,2.9536,2.958,2.9626,2.9658,2.9694,2.9727,2.9755,2.9796,2.9847,2.986,2.991,2.995,3.0013,3.0038,3.0076,3.0072,3.0084,3.0087,3.009,3.009,3.002,3.0085,3.0085,3.0085,3.0085,3.0085,0,2.9559,2.9588,2.9631,2.9685,2.9721,2.9727,2.9769,2.9799,2.9843,2.988,2.9919,2.9974,3.0018,3.0052,3.0098,3.0122,3.0126,3.0133,3.0131,3.0137,3.0092,3.008,3.0129,3.0129,3.0129,3.0129,3.0129,3.0129,2.9591,2.9646,2.9665,2.9735,2.9763,2.9814,2.9838,2.987,2.99,2.9961,2.9999,3.0022,3.0058,3.0106,3.0147,3.0156,3.0172,3.0178,3.0187,3.0145,3.014,3.0135,3.0124,3.0181,3.0181,3.0228,3.0229,3.0229]}]]